Zurück zum Katalog

CZ-6A R/B

AktivLEO
NORAD 100177·ROCKET BODY·🇨🇳 China

Gestartet Jul 30, 2026 von Taiyuan Satellite Launch Center

Loading…

Nächste Überflüge (nächste 24 Stunden)

TLE

AktuellSource: Space-Track

Epoche: Sep 14, 2026, 14:57 UTC

1 A0177U 26173D   26257.62348356 -.00000139  00000-0 -75917-4 0  9991
2 A0177  64.7965 160.0599 0097364  97.0324 264.1806 13.56154470  6311

Verfolge CZ-6A R/B in Echtzeit mit AllMySat

Download on the App Store